This demonstration page uses our WeatherBlox Daily Observations layout. Learn more.

Left ArrowRight Arrow

Hourly Observations for June 13, 2019

Temp ( °F °C ) Dew Point ( °F °C ) Humidity (%) Winds ( mph kmh ) Pressure ( in mb ) Visibility ( mi km ) Precip ( " mm )
12:53 am 00:53 Partly Cloudy 63 17.2 61 16.1 93 93 N N/A 29.78 1008 10 16 N/A
1:53 am 01:53 Mostly Clear 63 17.2 61 16.1 93 93 VRB 3 6 29.76 1008 8 13 N/A
2:53 am 02:53 Cloudy 63 17.2 56 13.3 78 78 W 5 7 29.76 1008 10 16 N/A
3:53 am 03:53 Cloudy 60 15.6 57 13.9 90 90 N N/A 29.74 1007 10 16 N/A
4:53 am 04:53 Cloudy 60 15.6 57 13.9 90 90 SSW 3 6 29.73 1007 10 16 N/A
5:53 am 05:53 Cloudy 61 16.1 54 12.2 78 78 VRB 3 6 29.74 1007 10 16 N/A
6:53 am 06:53 Mostly Cloudy 60 15.6 54 12.2 80 80 WSW 7 11 29.75 1007 10 16 N/A
7:53 am 07:53 Cloudy 60 15.6 55 12.8 84 84 SW 7 11 29.76 1008 10 16 N/A
8:15 am 08:15 Cloudy 60 15.6 55 12.8 84 84 SSW 7 11 29.76 1008 10 16 N/A
8:53 am 08:53 Cloudy 61 16.1 55 12.8 81 81 WSW 12 19 29.76 1008 10 16 N/A
9:53 am 09:53 Cloudy 60 15.6 54 12.2 80 80 W 9 15 29.79 1009 10 16 N/A
10:42 am 10:42 Cloudy 60 15.6 51 10.6 72 72 W 9 15 29.82 1010 10 16 N/A
10:53 am 10:53 Cloudy 60 15.6 51 10.6 72 72 W 10 17 29.81 1010 10 16 N/A
11:53 am 11:53 Cloudy 60 15.6 51 10.6 72 72 W 20 31 29.83 1010 10 16 N/A
12:53 pm 12:53 Cloudy 63 17.2 50 10 63 63 W 16 26 29.85 1011 10 16 N/A
1:53 pm 13:53 Cloudy 62 16.7 48 8.9 60 60 W 16 26 29.86 1011 10 16 N/A
2:53 pm 14:53 Cloudy 65 18.3 50 10 59 59 W 13 20 29.86 1011 10 16 N/A
3:53 pm 15:53 Cloudy 66 18.9 46 7.8 49 49 W 14 22 29.88 1012 10 16 N/A
4:31 pm 16:31 Cloudy with Light Rain 58 14.4 53 11.7 84 84 NW 16 26 29.93 1013 9 14 N/A
4:53 pm 16:53 Cloudy with Rain 55 12.8 51 10.6 87 87 WNW 18 30 29.94 1014 3 5 0.07 1.78
5:53 pm 17:53 Cloudy 58 14.4 52 11.1 81 81 WNW 15 24 29.96 1015 10 16 0.02 0.51
6:53 pm 18:53 Partly Cloudy 60 15.6 50 10 70 70 WNW 15 24 29.98 1015 10 16 N/A
7:53 pm 19:53 Mostly Sunny 61 16.1 47 8.3 60 60 WNW 15 24 30.00 1016 10 16 N/A
8:53 pm 20:53 Sunny 58 14.4 47 8.3 67 67 W 6 9 30.02 1017 10 16 N/A
9:53 pm 21:53 Clear 55 12.8 47 8.3 74 74 W 5 7 30.05 1018 10 16 N/A
10:53 pm 22:53 Clear 50 10 47 8.3 89 89 N N/A 30.07 1018 10 16 N/A
11:53 pm 23:53 Clear 49 9.4 46 7.8 90 90 N N/A 30.09 1019 10 16 N/A

Powered by AerisWeather